Temp
6 6 6 5 5 5 3 2 2 2 1 2 1 1 0 -1 -2 -1 -2 -2 -2 -2 -1 -1 -0 0 0 0 0 0 0 1 1 1 1 1 1 1 1 0 -1 -1 -1
6 6 6 5 5 4 4 4 2 1 2 1 1 1 0 0 -1 -1 -1 -2 -2 -2 -1 -1 -1 -1 0 0 0 1 1 1 1 1 1 1 -0 -1 -1 -1 -1 -1 -2
6 6 6 6 5 5 4 4 4 3 1 1 1 0 0 -0 -0 -1 -2 -1 -2 -2 -2 -1 -1 -0 0 0 1 1 1 1 1 1 1 0 -0 -1 -1 -1 -2 -2 -2
6 6 6 6 5 5 5 5 5 4 3 2 1 1 0 0 -0 -1 -1 -1 -1 -1 -2 -1 -1 -1 -0 0 1 1 1 1 1 0 0 -0 -1 -1 -1 -1 -2 -3 -2
7 6 6 5 5 5 5 5 5 5 5 5 5 4 4 2 0 -1 -1 -2 -2 -1 -1 -1 -0 -1 -0 0 1 1 1 1 0 -0 -0 -0 -0 -1 -1 -2 -2 -2 -3
7 7 6 6 6 6 5 5 5 5 5 5 5 5 5 4 3 3 2 2 1 1 2 1 1 0 0 1 1 1 1 0 -0 -0 -0 -0 -0 -1 -0 -2 -2 -2 -2
8 7 7 7 6 6 6 5 5 5 5 5 5 5 4 4 4 3 3 3 3 3 3 2 2 1 1 1 1 0 0 0 -0 -0 -0 -0 -1 -1 -1 -1 -1 -2 -2
8 7 7 7 7 7 6 6 6 5 5 5 5 5 5 4 4 4 4 3 3 3 2 2 1 1 0 -0 -0 -0 -0 0 -0 -0 -0 -1 -1 -1 -1 -2 -1 -1 -2
8 8 7 7 7 7 7 6 6 6 5 5 5 5 5 5 4 4 4 3 3 3 2 2 1 0 -1 0 -0 -0 -1 -0 -0 -0 -1 -1 -0 -1 -1 -1 -1 -2 -2
8 8 8 7 7 7 7 6 6 6 6 5 5 5 5 5 4 4 4 3 3 2 2 2 1 -0 -1 -1 -1 -0 -0 -0 -1 -1 -1 -1 -0 -0 -1 -1 -1 -2 -3
8 8 8 8 7 7 7 7 6 6 6 6 5 5 5 4 4 3 3 2 1 1 1 1 1 -0 -0 -0 -0 -0 -0 -0 -1 -1 -0 -0 -0 -1 -1 -1 -1 -2 -2
8 8 8 8 7 7 7 7 7 6 6 6 5 5 5 4 4 4 3 1 1 0 -0 0 -1 -0 -1 -0 -0 -1 -0 0 0 1 0 -0 -1 -1 -1 -1 -2 -2 -2
8 8 8 8 7 7 7 7 7 7 6 6 6 5 5 5 4 4 3 2 2 1 1 -0 0 1 -0 0 0 -1 -0 0 0 1 0 -0 -1 -1 -2 -1 -2 -2 -2
7 7 8 8 8 7 7 7 7 7 6 6 6 6 5 5 5 4 3 2 3 2 1 1 0 1 1 0 -0 0 1 1 1 1 0 -1 -1 -2 -2 -3 -2 -2 -4
7 8 7 7 7 7 7 7 7 6 6 6 6 6 5 5 5 4 4 3 3 2 2 2 2 1 1 1 1 1 1 1 1 1 0 -1 -1 -1 -1 -2 -3 -3 -5
7 7 7 7 7 7 7 7 7 6 6 6 6 6 6 5 5 4 4 4 3 3 2 2 2 2 2 1 1 1 1 1 1 0 -1 -0 -1 -1 -1 -3 -3 -6 -5
7 7 7 7 7 7 7 7 6 6 6 6 6 6 5 5 4 4 4 3 3 3 2 2 2 2 2 1 1 1 1 0 -0 0 -1 -1 -1 -2 -2 -3 -5 -5 -5
7 7 7 7 7 7 7 7 7 6 6 6 6 5 5 5 4 4 3 3 3 2 2 2 2 1 1 1 1 1 0 -0 -0 -1 -1 -1 -2 -3 -4 -5 -4 -6 -7
7 7 7 7 7 7 7 7 6 6 6 6 5 5 4 4 3 3 3 2 2 2 2 1 1 1 1 1 1 1 0 -0 -1 -2 -2 -3 -3 -4 -5 -5 -7 -8 -8
6 7 7 7 7 7 7 7 6 6 6 6 5 4 4 3 3 3 2 2 2 2 1 1 1 1 0 1 1 -0 -1 -1 -2 -2 -3 -4 -4 -5 -5 -7 -8 -8 -9
6 6 7 7 7 7 7 7 6 6 6 5 4 4 3 3 2 3 2 2 2 2 1 1 0 0 0 -0 -1 -1 -2 -2 -3 -3 -4 -5 -5 -7 -7 -8 -9 -10 -10
6 6 6 6 7 7 7 6 6 6 5 4 4 3 2 2 2 2 2 1 0 0 0 0 0 -0 -1 -1 -2 -2 -3 -4 -4 -5 -6 -6 -7 -8 -9 -10 -10 -12 -12
6 6 6 6 6 6 6 5 5 4 4 3 3 2 2 2 1 1 0 -0 -0 -0 -0 -0 -1 -1 -1 -2 -3 -3 -4 -5 -6 -6 -7 -8 -9 -10 -11 -12 -12 -13 -13
5 5 6 5 5 5 5 4 4 3 3 2 2 1 1 1 1 -0 -1 -1 -1 -1 -1 -1 -2 -2 -3 -3 -4 -5 -6 -7 -8 -9 -10 -11 -12 -12 -12 -12 -13 -13 -13
5 5 4 4 4 4 3 3 3 2 1 1 1 0 0 -0 -1 -1 -2 -2 -2 -2 -2 -3 -4 -4 -5 -6 -6 -7 -8 -10 -11 -12 -12 -11 -12 -12 -12 -13 -13 -13 -13
4 4 4 3 3 3 2 2 1 1 0 -0 -0 -1 -1 -2 -2 -3 -3 -3 -4 -4 -4 -5 -5 -6 -6 -7 -8 -9 -9 -10 -11 -11 -12 -12 -13 -13 -13 -13 -14 -14 -15
Height
3074 3074 3074 3075 3074 3071 3070 3072 3077 3080 3083 3086 3089 3091 3095 3100 3106 3111 3118 3123 3130 3136 3140 3142 3146 3149 3151 3154 3154 3154 3156 3156 3158 3157 3159 3160 3161 3160 3159 3159 3160 3159 3157
3072 3073 3073 3073 3073 3073 3073 3072 3073 3077 3081 3084 3087 3089 3094 3097 3102 3108 3113 3118 3125 3130 3135 3137 3142 3146 3147 3151 3152 3153 3154 3154 3154 3155 3155 3157 3157 3153 3152 3153 3154 3152 3151
3071 3071 3071 3072 3073 3073 3073 3073 3073 3075 3078 3082 3085 3088 3092 3095 3099 3103 3109 3114 3120 3124 3130 3132 3138 3143 3144 3147 3149 3149 3149 3149 3149 3150 3152 3151 3151 3148 3147 3147 3147 3147 3147
3069 3070 3071 3072 3073 3073 3074 3076 3076 3075 3076 3078 3083 3086 3090 3092 3096 3101 3108 3112 3116 3120 3125 3129 3133 3138 3140 3143 3145 3144 3145 3144 3145 3144 3146 3146 3146 3143 3141 3142 3142 3141 3140
3068 3068 3070 3071 3072 3074 3075 3076 3077 3078 3080 3080 3083 3086 3088 3090 3095 3099 3102 3107 3111 3115 3120 3124 3127 3131 3135 3138 3139 3140 3140 3140 3139 3139 3140 3139 3139 3139 3136 3135 3135 3134 3133
3066 3067 3067 3068 3070 3071 3074 3076 3077 3079 3080 3083 3085 3087 3090 3092 3095 3097 3099 3104 3108 3112 3116 3120 3122 3126 3130 3132 3134 3133 3134 3134 3132 3133 3132 3132 3133 3133 3131 3128 3128 3127 3125
3063 3064 3065 3066 3068 3071 3073 3076 3078 3079 3081 3083 3085 3087 3090 3093 3096 3097 3101 3103 3106 3109 3112 3115 3118 3122 3124 3125 3125 3126 3126 3126 3125 3123 3125 3125 3125 3125 3124 3122 3121 3118 3119
3059 3061 3063 3064 3066 3068 3070 3073 3076 3078 3080 3083 3085 3088 3089 3091 3094 3096 3096 3099 3102 3105 3107 3109 3112 3114 3116 3116 3116 3117 3116 3116 3116 3113 3113 3116 3116 3116 3116 3114 3112 3110 3109
3054 3057 3060 3062 3063 3064 3067 3070 3073 3076 3078 3080 3084 3086 3088 3089 3091 3093 3095 3096 3099 3100 3102 3104 3104 3105 3106 3107 3107 3105 3104 3103 3102 3105 3106 3108 3108 3107 3106 3105 3105 3102 3099
3050 3053 3056 3058 3060 3062 3065 3067 3069 3071 3074 3076 3079 3081 3084 3085 3087 3088 3090 3092 3094 3094 3095 3097 3097 3097 3098 3096 3095 3095 3094 3091 3095 3098 3099 3100 3099 3099 3097 3096 3096 3093 3091
3047 3050 3053 3055 3056 3058 3061 3064 3065 3066 3069 3071 3073 3076 3078 3081 3082 3084 3086 3084 3085 3086 3085 3086 3087 3088 3087 3084 3083 3076 3084 3085 3087 3090 3091 3091 3091 3090 3089 3087 3086 3084 3081
3044 3046 3050 3052 3053 3054 3055 3058 3060 3062 3064 3066 3068 3070 3073 3074 3073 3073 3074 3075 3076 3073 3075 3077 3077 3079 3078 3073 3071 3074 3078 3077 3080 3082 3082 3082 3082 3082 3080 3079 3076 3074 3071
3040 3042 3045 3047 3049 3051 3051 3052 3054 3056 3058 3059 3061 3063 3064 3064 3064 3065 3065 3067 3067 3068 3067 3068 3069 3070 3069 3068 3065 3066 3069 3071 3073 3073 3073 3073 3072 3071 3069 3067 3067 3065 3062
3036 3036 3039 3042 3044 3045 3046 3048 3048 3049 3050 3051 3053 3055 3055 3056 3057 3057 3057 3058 3060 3061 3061 3062 3063 3064 3064 3063 3064 3065 3066 3065 3065 3064 3063 3063 3062 3060 3059 3058 3056 3054 3050
3031 3032 3034 3035 3037 3039 3040 3042 3044 3043 3044 3046 3047 3048 3049 3049 3049 3049 3049 3050 3051 3052 3054 3053 3055 3056 3057 3059 3059 3058 3058 3057 3056 3055 3053 3053 3051 3050 3048 3047 3045 3042 3039
3025 3027 3029 3030 3031 3032 3034 3036 3037 3038 3039 3039 3040 3040 3040 3041 3041 3041 3041 3042 3042 3043 3045 3046 3048 3048 3049 3049 3050 3050 3050 3048 3047 3046 3045 3042 3041 3039 3037 3036 3033 3032 3029
3018 3019 3021 3022 3024 3025 3027 3028 3030 3031 3032 3032 3031 3032 3032 3031 3031 3033 3033 3034 3035 3037 3038 3039 3040 3041 3041 3042 3042 3041 3040 3040 3038 3035 3033 3032 3030 3028 3027 3025 3023 3021 3018
3010 3011 3012 3014 3016 3018 3019 3021 3021 3023 3024 3025 3025 3025 3024 3023 3023 3023 3025 3026 3027 3028 3029 3031 3031 3031 3032 3032 3032 3031 3030 3029 3027 3025 3023 3021 3020 3019 3017 3014 3012 3009 3006
3002 3002 3004 3006 3008 3009 3011 3013 3014 3015 3017 3018 3019 3018 3016 3015 3015 3015 3016 3017 3018 3019 3020 3021 3021 3021 3021 3021 3021 3021 3019 3018 3017 3015 3014 3013 3011 3009 3006 3004 3002 2997 2995
2994 2994 2995 2997 2998 3001 3002 3004 3005 3006 3008 3010 3011 3010 3009 3007 3006 3006 3006 3007 3008 3009 3009 3011 3011 3011 3010 3011 3011 3011 3010 3009 3008 3006 3004 3002 3000 2997 2995 2994 2990 2987 2985
2986 2986 2987 2989 2991 2992 2994 2995 2996 2997 3000 3001 3001 3001 3001 3000 2999 2998 2998 2998 2997 2998 2999 3000 3001 3001 3002 3002 3002 3001 3000 2999 2997 2995 2992 2990 2988 2986 2983 2981 2978 2977 2975
2974 2977 2977 2980 2982 2983 2984 2986 2986 2989 2991 2992 2991 2991 2990 2991 2989 2988 2988 2989 2989 2990 2990 2991 2991 2992 2992 2992 2991 2990 2989 2987 2985 2983 2981 2979 2977 2974 2972 2970 2967 2965 2961
2964 2966 2968 2970 2971 2972 2974 2976 2977 2979 2981 2982 2982 2982 2981 2979 2979 2979 2979 2980 2981 2982 2982 2982 2982 2982 2982 2981 2980 2978 2976 2975 2973 2972 2970 2967 2966 2964 2961 2957 2953 2950 2947
2957 2958 2959 2960 2963 2965 2967 2969 2970 2971 2972 2973 2973 2972 2971 2971 2970 2970 2972 2972 2972 2973 2974 2973 2973 2972 2971 2969 2968 2966 2965 2963 2961 2959 2957 2954 2952 2950 2946 2943 2940 2937 2934
2952 2953 2953 2953 2956 2959 2961 2961 2963 2964 2964 2963 2963 2962 2961 2961 2961 2962 2963 2963 2964 2964 2963 2963 2962 2961 2960 2958 2956 2954 2951 2949 2948 2946 2944 2942 2939 2937 2934 2931 2928 2924 2921
2946 2946 2947 2949 2950 2952 2953 2954 2953 2953 2954 2953 2952 2952 2951 2951 2952 2952 2952 2953 2953 2953 2952 2951 2950 2948 2947 2945 2942 2940 2939 2938 2936 2934 2932 2930 2928 2925 2922 2919 2916 2912 2908
Wind_Speed
7 6 5 6 7 7 4 12 26 19 22 24 22 21 30 35 38 42 43 41 38 34 29 28 27 26 23 18 17 17 16 17 14 14 14 16 19 23 24 23 22 22 23
6 5 4 5 6 6 6 4 18 23 21 24 24 23 30 29 39 39 42 43 40 35 35 36 29 28 27 22 19 20 16 16 16 15 17 17 19 19 22 23 20 24 21
9 6 4 2 4 5 4 3 4 16 26 23 27 18 29 31 34 39 42 40 40 41 36 26 31 34 29 25 22 21 18 18 18 17 20 21 22 23 18 19 21 23 21
9 9 7 3 1 1 4 5 5 4 10 20 27 24 26 28 30 30 34 41 38 39 36 35 39 37 32 28 24 23 23 22 21 21 20 20 22 25 26 20 21 23 26
11 10 7 7 7 5 3 1 5 7 7 10 12 14 14 19 26 27 31 37 35 33 36 35 37 37 34 31 29 28 27 27 26 25 24 27 27 27 26 26 27 27 26
12 11 12 13 13 10 7 5 4 5 7 10 12 12 12 14 17 18 20 24 29 32 33 35 35 34 35 31 32 31 33 33 32 30 30 27 29 31 32 29 28 30 32
15 16 14 11 13 14 12 10 8 8 9 9 10 11 12 14 15 17 18 20 22 25 25 30 30 31 32 34 34 34 36 37 40 35 34 31 30 32 31 35 32 35 34
13 17 17 15 10 10 12 13 12 12 11 11 11 12 14 16 17 17 18 20 21 22 25 29 30 32 35 37 39 41 43 39 43 39 40 30 30 33 34 33 38 39 37
18 17 18 17 17 14 10 9 14 15 15 14 14 14 15 16 17 19 22 23 25 26 29 31 33 36 38 41 45 48 50 47 51 35 23 31 32 34 34 38 40 37 43
16 20 19 16 17 16 15 14 13 13 17 20 20 20 20 22 23 25 26 27 29 31 33 35 37 39 44 46 47 50 47 36 22 27 31 36 34 37 39 39 39 47 40
14 17 16 16 15 17 15 14 15 16 15 18 20 22 23 25 29 31 29 34 34 37 37 37 40 47 46 48 43 43 32 19 27 34 36 37 39 41 37 39 40 50 40
16 16 16 17 17 17 18 19 20 22 21 22 23 23 23 30 31 30 34 18 27 26 41 40 49 50 41 36 46 20 24 27 33 35 37 38 40 43 36 41 40 46 47
20 23 25 23 20 21 19 19 22 24 24 25 28 27 27 27 27 26 33 22 25 17 12 22 17 22 27 22 23 29 32 32 32 35 40 42 40 36 41 44 49 52 54
21 24 22 22 21 19 16 14 10 12 18 19 21 24 26 25 25 24 26 33 27 24 25 23 25 25 21 22 26 29 33 33 36 37 38 39 41 41 45 47 52 51 51
22 21 23 24 22 20 13 16 14 11 13 12 11 11 18 22 23 26 28 26 29 25 25 23 25 25 28 28 29 31 33 34 36 39 40 41 43 44 46 48 47 49 43
21 26 24 23 25 25 22 18 18 17 15 18 20 19 22 22 25 24 26 26 25 25 24 23 24 26 27 29 32 35 36 37 39 41 42 43 43 44 41 44 44 40 49
25 29 26 24 27 28 25 24 19 20 21 21 23 26 28 27 25 26 26 27 27 26 25 27 28 29 29 32 35 37 38 40 41 40 42 42 41 42 42 42 42 47 46
27 27 29 32 32 31 30 24 22 22 24 25 27 28 31 30 25 25 27 27 28 29 31 31 32 31 33 35 36 37 37 38 39 40 40 40 42 40 43 46 45 44 45
25 27 25 24 27 27 29 26 27 28 29 29 28 26 30 29 27 26 27 30 31 34 35 35 35 35 36 35 35 36 36 38 38 39 40 41 42 43 46 45 41 46 46
23 20 19 25 28 30 30 30 29 31 30 30 29 29 32 29 28 28 29 31 33 35 36 37 38 37 35 36 37 36 36 38 38 39 40 42 45 47 45 45 47 46 43
33 24 23 24 25 26 30 31 31 28 27 28 31 32 32 30 29 31 33 33 33 34 35 36 36 34 36 36 36 36 37 38 40 41 43 45 45 46 47 46 45 42 42
36 30 25 28 31 34 34 33 30 26 27 30 32 34 33 32 32 32 31 29 30 32 34 34 35 36 36 37 37 37 38 39 41 42 44 45 46 46 46 44 44 47 47
28 28 33 33 35 36 33 24 24 26 28 33 34 34 32 31 30 29 27 30 32 32 34 36 37 37 37 38 39 40 41 42 42 43 44 45 45 44 44 48 49 50 52
21 24 24 18 15 14 16 20 24 28 31 32 33 33 31 31 30 29 31 32 33 34 36 36 37 38 39 40 41 41 41 42 43 43 43 43 46 51 53 53 53 52 51
21 20 17 19 18 21 24 26 28 28 27 29 31 31 31 30 28 28 29 31 33 34 36 37 38 39 39 40 40 41 42 42 42 44 47 49 49 48 50 49 49 51 50
26 26 23 21 22 25 27 26 25 24 27 28 29 29 28 27 27 28 30 31 33 34 36 38 40 41 41 40 42 44 44 43 43 44 44 43 45 47 47 49 50 48 48
Wind_Direction
298 315 356 8 34 50 110 197 197 201 204 212 219 220 210 209 213 200 192 200 203 208 215 223 218 224 228 235 240 235 227 229 241 251 267 274 281 284 286 294 297 305 305
271 277 307 351 25 52 70 145 201 205 211 213 221 217 207 218 218 201 203 206 203 207 219 228 219 231 235 238 246 243 235 233 241 254 266 275 303 302 283 282 294 299 295
248 243 243 299 17 31 71 82 135 195 204 217 214 210 218 226 220 213 208 223 224 219 219 219 223 239 241 243 248 242 237 240 245 255 265 279 291 307 295 274 281 284 297
247 244 229 217 214 12 39 92 102 92 180 196 207 205 209 210 219 218 221 225 233 228 222 223 223 234 245 245 246 244 243 245 249 253 262 281 284 298 301 284 299 301 294
230 237 214 206 220 208 193 124 122 130 135 149 160 177 191 201 209 211 212 220 228 231 223 225 222 230 241 247 249 248 255 253 255 259 265 270 279 285 291 293 288 294 295
225 219 209 207 208 220 217 197 166 163 156 159 162 159 166 178 192 196 207 211 214 216 215 214 217 226 237 250 253 255 256 259 259 256 262 270 275 282 282 288 287 303 285
225 229 226 228 222 218 218 219 208 190 186 184 184 180 176 187 188 189 192 200 205 209 213 219 225 233 241 249 252 254 256 258 261 259 258 263 266 272 274 280 283 287 287
233 227 233 231 227 230 231 232 230 227 219 210 202 201 203 208 210 213 212 212 214 218 219 223 227 234 242 249 254 258 259 261 260 266 260 255 261 270 273 283 288 282 291
236 236 229 239 232 230 233 240 240 239 242 236 234 233 229 231 233 232 234 232 231 231 233 238 242 246 252 254 255 256 257 256 260 259 253 256 268 272 278 278 270 301 294
230 219 213 219 227 230 235 237 242 247 244 246 247 245 246 245 244 244 244 246 248 246 246 246 250 252 251 250 254 255 261 270 239 241 248 263 269 272 276 276 270 288 289
238 228 215 215 211 214 220 234 238 247 251 252 252 251 253 258 260 258 260 255 255 256 252 251 252 251 255 263 265 258 266 230 242 250 257 262 267 272 279 283 281 288 283
234 217 224 226 222 219 228 238 242 247 251 257 258 259 253 258 265 262 257 277 254 279 247 253 252 259 269 259 261 251 244 245 252 253 261 267 272 274 277 274 280 283 284
244 236 236 234 231 235 236 243 247 251 254 258 257 264 269 273 280 281 269 249 273 271 244 250 245 266 275 255 219 225 241 253 259 262 264 267 273 274 284 273 277 275 283
281 237 247 238 242 235 246 246 251 234 243 250 256 266 272 275 272 268 264 255 258 259 259 257 266 252 249 235 245 250 252 258 263 268 272 271 274 273 271 272 275 278 282
249 234 258 252 235 247 258 253 259 251 228 233 260 297 279 271 265 260 261 255 246 253 259 253 249 252 245 249 252 252 258 263 268 271 276 274 274 274 275 275 275 280 283
261 246 249 251 249 254 263 268 256 261 263 258 267 281 294 289 263 260 261 255 246 244 244 253 253 251 252 254 259 262 265 269 271 272 271 275 275 273 277 277 279 279 275
260 258 256 249 254 254 268 272 267 266 272 274 276 282 289 297 273 261 262 257 252 250 252 252 257 258 258 260 262 264 266 266 268 271 273 273 275 276 278 279 276 276 283
265 255 260 252 256 253 265 264 260 264 260 268 269 279 284 292 272 263 258 258 256 256 255 255 258 262 261 263 263 261 263 267 270 271 273 273 275 276 274 275 279 282 279
263 262 254 256 253 253 249 259 261 260 259 268 266 275 283 281 269 265 262 260 257 256 254 257 260 262 263 262 264 266 269 270 270 270 271 274 276 273 271 277 281 276 278
259 251 262 262 252 250 242 255 261 257 258 264 265 274 279 271 266 265 263 260 257 255 253 256 260 263 264 262 266 268 269 268 269 271 270 269 271 273 277 274 272 273 277
260 261 262 257 253 245 246 249 258 253 254 255 262 271 270 267 267 264 263 263 261 257 255 256 258 255 258 263 265 267 268 269 269 269 269 270 271 270 270 270 272 276 279
249 252 263 262 261 253 251 256 247 245 250 256 265 266 262 268 272 271 267 262 256 253 252 251 253 257 260 263 265 266 267 267 266 266 267 269 269 268 269 272 276 277 275
246 246 249 254 253 251 253 234 237 248 257 261 262 263 268 275 279 273 265 256 252 249 251 254 257 260 263 266 267 267 267 267 267 267 267 267 268 270 272 272 272 272 278
251 260 247 232 230 235 240 246 250 255 258 261 264 268 272 274 272 262 253 251 251 255 260 262 264 265 266 266 266 266 267 268 267 267 268 269 269 272 275 280 280 282 284
230 231 230 236 241 247 254 262 262 263 262 263 269 274 278 276 269 262 258 258 260 262 264 266 267 269 269 269 268 267 265 266 267 267 274 278 280 281 283 283 285 288 288
233 229 235 239 237 242 249 258 259 262 267 270 274 277 278 277 272 268 266 266 268 270 272 272 273 273 272 270 269 268 272 278 283 283 286 290 288 288 288 289 291 292 292